Voltar ao catálogo

CZ-6A DEB

AtivoSSO
NORAD 54497·DEBRIS·🇨🇳 China

Lançado Nov 11, 2022 de Taiyuan Satellite Launch Center

Loading…

Próximas Passagens (próximas 24 horas)

TLE

AtualizadoSource: Space-Track

Época: Sep 14, 2026, 11:18 UTC

1 54497U 22151HZ  26257.47085900  .00000617  00000-0  35416-3 0  9991
2 54497  98.8436 257.6269 0049941  74.9756 285.6936 14.12396840197128

Acompanhe CZ-6A DEB em tempo real com AllMySat

Download on the App Store